Погода в Каменке

Россия / Тверская область     57°42′43″N   35°24′44″E
темп.,
°C
ветер,
м/с
пор.,
м/с
влажн.,
%
обл.,
%
осадки,
мм/ч
давл.,
гПа
погр.,
м
11 апреля, вс
вс1100:00+5юз4127369 0.0 1020433
03:00+3зсз2697100 0.1 1023422
06:00+2юз129784 0.0 102438
09:00+6юз238070 0.0 1026619
12:00+6ююз2485100 0.0 1028478
15:00+8з1377100 0.1 1029531
18:00+8в1282100 0.0 103043
21:00+6вюв3789100 0.0 1031204
12 апреля, пн
пн1200:00+6вюв2593100 0.1 1032124
03:00+5юв249472 0.1 103286
06:00+6ю278799 0.0 1032154
09:00+10ю37665 0.0 1032334
12:00+14ююв47485 0.0 10321035
15:00+15ююв57455 0.0 10301431
18:00+14юв485789 0.0 10281056
21:00+10юв41171100 0.0 1028708
13 апреля, вт
вт1300:00+9ююв41175100 0.0 1027606
03:00+8ююв31085100 0.0 1026393
06:00+7ююв2794100 0.0 1025188
09:00+10ююв3582100 0.0 1024287
12:00+15ю3666100 0.0 1023699
15:00+16ю3464100 0.0 1022679
18:00+13ю2378100 0.0 102281
21:00+11ю2284100 0.0 102220
14 апреля, ср
ср1400:00+10ю2289100 0.1 102132
03:00+9ююз2594100 0.2 102198
06:00+9ююв229473 0.0 102030
09:00+13ю366789 0.0 1020350
12:00+14ююз2766100 0.0 1019406
15:00+17ю3655100 0.1 10181312
18:00+14ссз2374100 1.3 1018106
21:00+7с3789100 1.9 1020274
15 апреля, чт
чт1500:00+5с3692100 0.9 1021319
03:00+4ссв3792100 1.1 1021374
06:00+4ссв3793100 0.1 1021408
09:00+4ссв4792100 0.6 1021422
12:00+5ссв4686100 0.0 1022607
15:00+4ссв4890100 0.1 1023581
18:00+2ссв41297100 0.3 1024514
21:00+3св41191100 1.2 1026775